Terminal Aerodrome Forecast
Issued by NWS Mt. Holly, NJ

Home | Current Version | Previous Version | Text Only | Print | Product List | Glossary On
Versions: 1 2 3 4 5 6 7 8 9 10 11 12 13 14 15 16
316
FTUS41 KPHI 261724
TAFACY
TAF
KACY 261724Z 2618/2718 16012G20KT P6SM SCT250
     FM262300 19009KT P6SM BKN035
     FM270600 22010KT 5SM -SHRA OVC015
     FM271300 29008KT 5SM -SHRA FEW007 OVC012
     FM271700 26007KT P6SM -SHRA OVC030=

USA.gov is the U.S. government's official web portal to all federal, state and local government web resources and services.